• Join FlightAware (Why Join?)
  • Login
  • US Flag 
11:38AM EST


 

Airport Tracker/Info


-or-


 

Live Flight TrackerFlight Track Log ✈ SWA3213 ✈ 13-Mar-2014 ✈ KTPA - KMEM

Flight Track Log - Related Links

Times and Time Zones

All times are in EDT time to prevent confusion due to time zone crossing. See the SWA3213 flight status page for this flight to view local times or setup timezone preferences in your user account.

Time Position Orientation Groundspeed Altitude Reporting Facility
EDT Latitude Longitude Course Direction KTS MPH feet Rate Location/Type
10:43AM 28.0000 -82.5333 360° North 147 169 900  Level Tampa TRACON
10:43AM 28.0333 -82.5333 360° North 189 217 2,400 2,640 Climbing Tampa TRACON
10:44AM 28.1000 -82.5333 360° North 251 289 5,700 3,120 Climbing Tampa TRACON
10:46AM 28.1892 -82.5936 329° Northwest 257 296 10,500 2,460 Climbing Jacksonville Center
10:47AM 28.2664 -82.6356 334° Northwest 275 316 12,000 2,100 Climbing Jacksonville Center
10:48AM 28.3500 -82.6850 333° Northwest 310 357 14,800 2,520 Climbing Jacksonville Center
10:49AM 28.4358 -82.7344 333° Northwest 328 377 17,100 2,220 Climbing Jacksonville Center
10:50AM 28.5256 -82.7864 333° Northwest 345 397 19,300 2,040 Climbing Jacksonville Center
10:51AM 28.6217 -82.8239 341° North 350 403 21,300 1,800 Climbing Jacksonville Center
10:52AM 28.7156 -82.8522 345° North 367 422 22,900 1,620 Climbing Jacksonville Center
10:53AM 28.8114 -82.8997 337° Northwest 373 429 24,600 1,440 Climbing Jacksonville Center
10:54AM 28.9117 -82.9472 337° Northwest 378 435 25,900 720 Climbing Jacksonville Center
10:55AM 29.0097 -82.9969 336° Northwest 378 435 26,100 1,020 Climbing Jacksonville Center
10:56AM 29.1056 -83.0400 339° North 378 435 28,000 1,740 Climbing Jacksonville Center
10:57AM 29.2036 -83.0853 338° Northwest 378 435 29,600 1,500 Climbing Jacksonville Center
10:58AM 29.2850 -83.1497 325° Northwest 365 420 31,000 1,260 Climbing Jacksonville Center
10:59AM 29.3664 -83.2167 324° Northwest 365 420 32,200 1,080 Climbing Jacksonville Center
11:00AM 29.4497 -83.2836 325° Northwest 360 414 33,200 900 Climbing Jacksonville Center
11:01AM 29.5350 -83.3533 325° Northwest 360 414 34,000 360 Climbing Jacksonville Center
11:02AM 29.6203 -83.4206 326° Northwest 365 420 34,000  Level Jacksonville Center
11:03AM 29.7056 -83.4928 324° Northwest 371 427 34,000  Level Jacksonville Center
11:04AM 29.8011 -83.5675 326° Northwest 371 427 34,000 -60 Level Jacksonville Center
11:05AM 29.8886 -83.6400 324° Northwest 377 434 33,900 600 Descending Jacksonville Center
11:06AM 29.9736 -83.7103 324° Northwest 377 434 35,200 1,020 Climbing Jacksonville Center
11:07AM 30.0525 -83.7756 324° Northwest 370 426 36,000 360 Climbing Jacksonville Center
11:08AM 30.1314 -83.8389 325° Northwest 356 410 36,000  Level Jacksonville Center
11:09AM 30.2125 -83.9069 324° Northwest 356 410 36,000  Level Jacksonville Center
11:10AM 30.2933 -83.9728 325° Northwest 361 415 36,000  Level Jacksonville Center
11:11AM 30.3761 -84.0411 325° Northwest 361 415 36,000  Level Jacksonville Center
11:12AM 30.4592 -84.1072 326° Northwest 361 415 36,000  Level Jacksonville Center
11:13AM 30.5397 -84.1756 324° Northwest 361 415 36,000  Level Jacksonville Center
11:14AM 30.6164 -84.2419 323° Northwest 355 409 36,000  Level Jacksonville Center
11:15AM 30.6992 -84.3131 324° Northwest 355 409 36,000  Level Jacksonville Center
11:16AM 30.7797 -84.3797 325° Northwest 362 417 36,000  Level Jacksonville Center
11:17AM 30.8625 -84.4464 325° Northwest 362 417 36,000  Level Jacksonville Center
11:18AM 30.9389 -84.5131 323° Northwest 357 411 36,000  Level Jacksonville Center
11:19AM 31.0194 -84.5822 324° Northwest 357 411 36,000  Level Jacksonville Center
11:20AM 31.1000 -84.6517 324° Northwest 363 418 36,000  Level Jacksonville Center
11:21AM 31.1783 -84.7161 325° Northwest 363 418 36,000  Level Jacksonville Center
11:22AM 31.2589 -84.7833 325° Northwest 358 412 36,000  Level Jacksonville Center
11:24AM 31.4386 -84.9394 323° Northwest 346 398 36,000  Level Atlanta Center
11:25AM 31.5175 -85.0058 324° Northwest 351 404 36,000  Level Atlanta Center
11:26AM 31.5983 -85.0750 324° Northwest 356 410 36,000  Level Atlanta Center
11:27AM 31.6647 -85.1294 325° Northwest 361 415 36,000  Level Atlanta Center
11:28AM 31.7475 -85.1989 325° Northwest 356 410 36,000  Level Atlanta Center
11:29AM 31.8261 -85.2683 323° Northwest 356 410 36,000  Level Atlanta Center
11:30AM 31.9047 -85.3356 324° Northwest 356 410 36,000  Level Atlanta Center
11:31AM 31.9833 -85.4053 323° Northwest 356 410 36,000  Level Atlanta Center
11:32AM 32.0639 -85.4725 325° Northwest 361 415 36,000  Level Atlanta Center
11:33AM 32.1425 -85.5400 324° Northwest 361 415 36,000  Level Atlanta Center
11:34AM 32.2231 -85.6103 324° Northwest 361 415 36,000  Level Atlanta Center
11:35AM 32.3014 -85.6778 324° Northwest 361 415 36,000  Level Atlanta Center
11:36AM 32.3881 -85.7533 324° Northwest 361 415 36,000  Level Atlanta Center
11:37AM 32.4642 -85.8236 322° Northwest 356 410 36,000  Level Atlanta Center
11:38AM 32.5447 -85.8894 325° Northwest 356 410 36,000  Level Atlanta Center
11:39AM 32.6231 -85.9575 324° Northwest 356 410 36,000  Level Atlanta Center
11:40AM 32.6992 -86.0258 323° Northwest 356 410 36,000  Level Atlanta Center
11:41AM 32.7772 -86.0944 324° Northwest 356 410 36,000  Level Atlanta Center
11:42AM 32.8553 -86.1678 322° Northwest 356 410 36,000  Level Atlanta Center
11:43AM 32.9333 -86.2414 322° Northwest 356 410 36,000  Level Atlanta Center
11:44AM 33.0094 -86.3006 327° Northwest 356 410 36,000  Level Atlanta Center
11:45AM 33.0853 -86.3767 320° Northwest 351 404 36,000  Level Atlanta Center
11:46AM 33.1614 -86.4408 325° Northwest 351 404 36,000  Level Atlanta Center
11:47AM 33.2414 -86.5075 325° Northwest 346 398 36,000  Level Atlanta Center
11:48AM 33.3050 -86.5692 321° Northwest 337 388 36,000  Level Atlanta Center
11:49AM 33.3808 -86.6361 324° Northwest 337 388 36,000  Level Atlanta Center
11:50AM 33.4586 -86.7081 322° Northwest 337 388 36,000  Level Atlanta Center
11:51AM 33.5342 -86.7778 322° Northwest 337 388 36,000  Level Atlanta Center
11:52AM 33.6100 -86.8450 324° Northwest 337 388 36,000  Level Atlanta Center
11:53AM 33.6792 -86.9219 317° Northwest 337 388 36,000  Level Atlanta Center
11:54AM 33.7269 -87.0186 301° West 326 375 36,000  Level Atlanta Center
11:55AM 33.7706 -87.1100 300° West 326 375 36,000 -300 Level Atlanta Center
11:57AM 33.8719 -87.3197 300° West 330 380 35,200 -360 Descending Memphis Center
11:58AM 33.9167 -87.4150 300° West 330 380 35,000 -120 Descending Memphis Center
12:00PM 33.9633 -87.5106 301° West 330 380 35,000 -660 Level Memphis Center
12:01PM 34.0083 -87.6083 299° West 330 380 33,700 -1,800 Descending Memphis Center
12:02PM 34.0622 -87.7236 299° West 336 387 31,400 -2,520 Descending Memphis Center
12:03PM 34.1114 -87.8247 300° West 345 397 28,600 -2,700 Descending Memphis Center
12:04PM 34.1631 -87.9353 299° West 351 404 25,900 -1,740 Descending Memphis Center
12:05PM 34.2122 -88.0389 300° West 353 406 25,000 -960 Descending Memphis Center
12:06PM 34.2631 -88.1414 301° West 353 406 24,000 -540 Descending Memphis Center
12:07PM 34.3150 -88.2458 301° West 356 410 24,000  Level Memphis Center
12:08PM 34.3694 -88.3558 301° West 373 429 24,000  Level Memphis Center
12:09PM 34.4356 -88.4900 301° West 384 442 24,000  Level Memphis Center
12:10PM 34.4897 -88.5994 301° West 383 441 24,000  Level Memphis Center
12:11PM 34.5428 -88.7081 301° West 378 435 24,000  Level Memphis Center
12:12PM 34.6008 -88.8267 301° West 372 428 24,000 -960 Level Memphis Center
12:13PM 34.6475 -88.9350 298° West 368 423 22,100 -2,100 Descending Memphis Center
12:14PM 34.6694 -89.0511 283° West 356 410 19,700 -1,980 Descending Memphis Center
12:15PM 34.6928 -89.1564 285° West 330 380 18,100 -1,800 Descending Memphis Center
12:16PM 34.7164 -89.2547 286° West 311 358 16,100 -1,020 Descending Memphis Center
12:17PM 34.7383 -89.3522 285° West 304 350 16,000 -240 Descending Memphis Center
12:18PM 34.7639 -89.4697 285° West 302 348 15,700 -1,200 Descending Memphis Center
12:19PM 34.8022 -89.5606 297° West 300 345 13,600 -1,800 Descending Memphis Center
12:20PM 34.8436 -89.6417 302° West 290 334 12,100 -1,260 Descending Memphis Center
12:21PM 34.8811 -89.7158 302° West 273 314 11,100 -1,320 Descending Memphis Center
12:22PM 34.9247 -89.8017 302° West 262 302 9,400 -1,260 Descending Memphis Center
12:23PM 34.9697 -89.8592 314° West 255 293 8,600 -720 Descending Memphis Center
12:24PM 35.0342 -89.8600 359° North 239 275 8,000 -780 Descending Memphis Center
12:25PM 35.0928 -89.8614 359° North 217 250 7,000 -1,260 Descending Memphis Center
12:26PM 35.1492 -89.8622 359° North 208 239 5,400 -1,620 Descending Memphis Center
12:27PM 35.1833 -89.8833 333° Northwest 208 239 4,300 -1,260 Descending KMEM
12:28PM 35.1833 -89.9500 270° West 199 229 3,400 -1,020 Descending KMEM
12:29PM 35.1500 -89.9833 219° Southwest 189 217 2,300 -1,020 Descending KMEM
12:30PM 35.1000 -89.9833 180° South 155 178 1,400 -900 Descending KMEM
12:31PM 35.0667 -89.9833 180° South 138 159 600 -840 Descending KMEM